TimeCDT,TemperatureF,Dew PointF,Humidity,Sea Level PressureIn,VisibilityMPH,Wind Direction,Wind SpeedMPH,Gust SpeedMPH,PrecipitationIn,Events,Conditions,WindDirDegrees,DateUTC
12:57 AM,71.1,66.9,87,29.91,10.0,ESE,5.8,-,N/A,,Partly Cloudy,120,2013-10-05 05:57:00
1:57 AM,71.1,66.9,87,29.93,10.0,SSE,4.6,-,0.00,,Partly Cloudy,150,2013-10-05 06:57:00
2:57 AM,71.1,66.9,87,29.91,10.0,SE,6.9,-,N/A,,Scattered Clouds,130,2013-10-05 07:57:00
3:57 AM,71.1,68.0,90,29.89,10.0,SE,10.4,-,0.00,,Mostly Cloudy,130,2013-10-05 08:57:00
4:57 AM,69.8,64.4,83,29.95,10.0,NW,4.6,-,N/A,,Overcast,320,2013-10-05 09:57:00
4:59 AM,69.1,64.9,87,29.91,10.0,NNW,3.5,-,N/A,,Overcast,330,2013-10-05 09:59:00
5:02 AM,69.8,64.4,83,29.95,10.0,NW,5.8,-,N/A,,Overcast,310,2013-10-05 10:02:00
5:14 AM,66.2,62.6,88,29.95,10.0,North,9.2,26.5,N/A,,Overcast,350,2013-10-05 10:14:00
5:39 AM,64.4,60.8,88,29.95,10.0,Variable,6.9,-,N/A,,Overcast,0,2013-10-05 10:39:00
5:46 AM,64.4,60.8,88,29.95,10.0,North,8.1,-,N/A,Thunderstorm,Overcast,360,2013-10-05 10:46:00
5:57 AM,64.9,61.0,87,29.89,10.0,NNE,17.3,21.9,N/A,Thunderstorm,Overcast,30,2013-10-05 10:57:00
6:19 AM,64.4,60.8,88,29.97,8.0,NW,9.2,-,0.02,Rain-Thunderstorm,Light Thunderstorms and Rain,320,2013-10-05 11:19:00
6:30 AM,62.6,60.8,94,29.98,2.5,North,8.1,-,0.48,Rain-Thunderstorm,Heavy Thunderstorms and Rain,360,2013-10-05 11:30:00
6:41 AM,62.6,60.8,94,29.98,3.0,North,5.8,-,0.77,Rain-Thunderstorm,Heavy Thunderstorms and Rain,360,2013-10-05 11:41:00
6:45 AM,62.6,60.8,94,29.97,4.0,NNW,11.5,-,0.86,Rain-Thunderstorm,Heavy Thunderstorms and Rain,330,2013-10-05 11:45:00
6:57 AM,62.6,60.8,94,29.98,6.0,North,6.9,-,1.08,Rain-Thunderstorm,Heavy Thunderstorms and Rain,350,2013-10-05 11:57:00
6:59 AM,63.0,61.0,93,29.95,7.0,NNW,5.8,-,1.11,Rain-Thunderstorm,Heavy Thunderstorms and Rain,340,2013-10-05 11:59:00
7:02 AM,62.6,60.8,94,29.97,7.0,NNW,8.1,-,0.03,Rain-Thunderstorm,Heavy Thunderstorms and Rain,340,2013-10-05 12:02:00
7:13 AM,62.6,60.8,94,29.96,9.0,NNE,5.8,-,0.10,Rain-Thunderstorm,Heavy Thunderstorms and Rain,20,2013-10-05 12:13:00
7:19 AM,62.6,62.6,100,29.95,10.0,ENE,9.2,-,0.12,Rain-Thunderstorm,Thunderstorms and Rain,70,2013-10-05 12:19:00
7:27 AM,62.6,60.8,94,29.96,10.0,East,6.9,-,0.15,Rain-Thunderstorm,Thunderstorms and Rain,90,2013-10-05 12:27:00
7:43 AM,62.6,60.8,94,29.96,9.0,East,6.9,-,0.20,Rain-Thunderstorm,Thunderstorms and Rain,80,2013-10-05 12:43:00
7:57 AM,63.0,62.1,97,29.94,6.0,East,8.1,-,0.27,Rain-Thunderstorm,Heavy Thunderstorms and Rain,90,2013-10-05 12:57:00
8:06 AM,62.6,62.6,100,29.95,8.0,East,11.5,-,0.02,Rain,Rain,80,2013-10-05 13:06:00
8:44 AM,62.6,62.6,100,29.98,4.0,ENE,5.8,-,0.12,Rain-Thunderstorm,Rain,70,2013-10-05 13:44:00
8:57 AM,62.6,62.6,100,29.99,10.0,Calm,Calm,-,0.14,Rain,Light Rain,0,2013-10-05 13:57:00
8:59 AM,63.0,62.1,97,29.96,10.0,Calm,Calm,-,0.14,Rain,Light Rain,0,2013-10-05 13:59:00
9:06 AM,64.4,62.6,94,30.00,10.0,West,6.9,-,0.00,Rain-Thunderstorm,Light Rain,280,2013-10-05 14:06:00
9:10 AM,64.4,62.6,94,30.01,10.0,West,8.1,-,0.00,Rain-Thunderstorm,Light Rain,280,2013-10-05 14:10:00
9:21 AM,62.6,62.6,100,30.01,10.0,West,5.8,-,0.01,Rain,Light Rain,280,2013-10-05 14:21:00
9:27 AM,62.6,60.8,94,30.00,1.5,WNW,12.7,17.3,0.01,,Overcast,300,2013-10-05 14:27:00
9:29 AM,62.6,60.8,94,30.01,0.8,WNW,11.5,17.3,0.01,Rain,Light Rain,300,2013-10-05 14:29:00
9:33 AM,60.8,57.2,88,30.01,0.5,WNW,10.4,17.3,0.01,Fog-Rain,Light Rain,300,2013-10-05 14:33:00
9:35 AM,59.0,57.2,94,30.01,0.2,WNW,12.7,-,0.01,Fog-Rain,Light Rain,290,2013-10-05 14:35:00
9:57 AM,57.2,55.4,94,30.03,0.5,WNW,9.2,-,0.01,Fog-Rain,Light Rain,300,2013-10-05 14:57:00
9:59 AM,57.0,55.0,93,30.01,0.5,WNW,8.1,-,0.01,Fog,Fog,300,2013-10-05 14:59:00
10:25 AM,55.4,53.6,94,30.02,0.8,NW,9.2,-,0.01,Rain,Light Rain,320,2013-10-05 15:25:00
10:32 AM,55.4,53.6,94,30.02,1.0,NW,6.9,-,0.01,Rain-Thunderstorm,Light Rain,310,2013-10-05 15:32:00
10:40 AM,55.4,53.6,94,30.02,1.2,WNW,9.2,-,0.01,Rain-Thunderstorm,Light Rain,300,2013-10-05 15:40:00
10:49 AM,55.4,53.6,94,30.03,1.5,WNW,9.2,-,0.01,Rain,Light Rain,290,2013-10-05 15:49:00
10:57 AM,55.0,54.0,96,30.01,1.5,WNW,10.4,-,0.01,Rain,Light Rain,300,2013-10-05 15:57:00
11:15 AM,53.6,51.8,94,30.03,2.0,NNW,12.7,-,0.00,Rain,Light Rain,340,2013-10-05 16:15:00
11:28 AM,51.8,50.0,94,30.05,1.8,WNW,12.7,-,0.00,Rain,Light Rain,300,2013-10-05 16:28:00
11:50 AM,51.8,48.2,88,30.06,1.5,WNW,15.0,-,0.00,Rain,Light Rain,300,2013-10-05 16:50:00
11:57 AM,51.1,48.9,92,30.03,1.8,NW,11.5,-,0.00,Rain,Light Rain,320,2013-10-05 16:57:00
12:16 PM,51.8,48.2,88,30.06,2.0,NW,12.7,-,0.00,Rain,Light Rain,310,2013-10-05 17:16:00
12:39 PM,50.0,48.2,94,30.06,1.8,WNW,10.4,-,0.01,Rain,Light Rain,290,2013-10-05 17:39:00
12:49 PM,50.0,48.2,94,30.07,2.0,WNW,10.4,-,0.01,Rain,Light Rain,290,2013-10-05 17:49:00
12:54 PM,48.2,48.2,100,30.06,3.0,WNW,8.1,-,0.01,Rain,Light Rain,290,2013-10-05 17:54:00
12:57 PM,48.9,48.0,97,30.05,3.0,West,9.2,-,0.01,Rain,Light Rain,280,2013-10-05 17:57:00
1:00 PM,48.2,48.2,100,30.07,2.0,WNW,8.1,-,0.00,Rain,Light Rain,290,2013-10-05 18:00:00
1:03 PM,48.2,46.4,93,30.05,1.5,WNW,10.4,-,0.00,Rain,Rain,290,2013-10-05 18:03:00
1:20 PM,48.2,46.4,93,30.07,2.5,West,8.1,-,0.01,Rain,Light Rain,280,2013-10-05 18:20:00
1:27 PM,48.2,46.4,93,30.07,3.0,WNW,10.4,-,0.02,Rain,Rain,300,2013-10-05 18:27:00
1:57 PM,46.9,46.0,97,30.01,10.0,Variable,5.8,-,0.06,Rain,Light Rain,0,2013-10-05 18:57:00
2:57 PM,46.9,45.0,93,30.00,10.0,Calm,Calm,-,0.03,Rain,Light Rain,0,2013-10-05 19:57:00
3:09 PM,46.4,44.6,93,30.02,10.0,NW,5.8,-,0.00,Rain,Light Rain,320,2013-10-05 20:09:00
3:13 PM,46.4,44.6,93,30.03,10.0,WNW,8.1,-,0.00,Rain,Light Rain,290,2013-10-05 20:13:00
3:57 PM,46.9,45.0,93,30.01,10.0,WNW,8.1,-,0.03,Rain,Light Rain,290,2013-10-05 20:57:00
4:12 PM,46.4,44.6,93,30.02,10.0,West,5.8,-,0.01,Rain,Light Rain,280,2013-10-05 21:12:00
4:25 PM,46.4,46.4,100,30.02,10.0,Calm,Calm,-,0.02,Rain,Light Rain,0,2013-10-05 21:25:00
4:57 PM,50.0,46.9,89,30.01,10.0,West,5.8,-,0.02,,Mostly Cloudy,280,2013-10-05 21:57:00
5:35 PM,51.8,46.4,82,30.02,10.0,West,4.6,-,N/A,,Scattered Clouds,260,2013-10-05 22:35:00
5:57 PM,51.1,48.0,89,30.01,10.0,West,3.5,-,N/A,,Clear,260,2013-10-05 22:57:00
6:57 PM,52.0,48.9,89,30.02,10.0,SW,5.8,-,N/A,,Clear,220,2013-10-05 23:57:00
7:57 PM,51.1,48.9,92,30.02,10.0,South,6.9,-,N/A,,Clear,170,2013-10-06 00:57:00
8:57 PM,50.0,48.0,93,30.04,10.0,Variable,3.5,-,N/A,,Clear,0,2013-10-06 01:57:00
9:57 PM,48.9,48.0,97,30.04,10.0,WSW,4.6,-,N/A,,Clear,250,2013-10-06 02:57:00
10:57 PM,50.0,48.0,93,30.04,10.0,SSW,5.8,-,N/A,,Clear,210,2013-10-06 03:57:00
11:57 PM,48.9,46.0,90,30.04,10.0,SW,5.8,-,N/A,,Clear,220,2013-10-06 04:57:00